Time,TemperatureF,DewpointF,PressureIn,WindDirection,WindDirectionDegrees,WindSpeedMPH,WindSpeedGustMPH,Humidity,HourlyPrecipIn,Conditions,Clouds,dailyrainin,SoftwareType,DateUTC
2013-06-23 00:00:00,56.0,45.2,29.84,South,172,9.0,9.0,67,0.00,,,0.00,Wunderground v.1.15,2013-06-23 07:00:00,
2013-06-23 00:05:00,56.0,45.6,29.83,SSE,150,7.0,9.0,68,0.00,,,0.00,Wunderground v.1.15,2013-06-23 07:05:00,
2013-06-23 00:10:00,55.9,46.3,29.83,SE,144,7.0,7.0,70,0.00,,,0.00,Wunderground v.1.15,2013-06-23 07:10:00,
2013-06-23 00:15:00,55.8,46.2,29.84,SSE,164,8.0,10.0,70,0.00,,,0.00,Wunderground v.1.15,2013-06-23 07:15:00,
2013-06-23 00:20:00,55.8,46.9,29.83,SSE,155,9.0,14.0,72,0.00,,,0.00,Wunderground v.1.15,2013-06-23 07:20:00,
2013-06-23 00:25:00,56.0,48.2,29.83,SSE,161,13.0,14.0,75,0.00,,,0.00,Wunderground v.1.15,2013-06-23 07:25:00,
2013-06-23 00:30:00,55.9,48.4,29.83,SSE,153,13.0,13.0,76,0.00,,,0.00,Wunderground v.1.15,2013-06-23 07:30:00,
2013-06-23 00:35:00,55.8,48.7,29.83,SE,126,12.0,13.0,77,0.00,,,0.00,Wunderground v.1.15,2013-06-23 07:35:00,
2013-06-23 00:45:00,55.6,49.2,29.83,SE,141,13.0,17.0,79,0.00,,,0.00,Wunderground v.1.15,2013-06-23 07:45:00,
2013-06-23 00:50:00,55.5,49.1,29.83,SSE,163,12.0,14.0,79,0.00,,,0.00,Wunderground v.1.15,2013-06-23 07:50:00,
2013-06-23 00:55:00,55.3,48.9,29.84,South,172,11.0,14.0,79,0.00,,,0.00,Wunderground v.1.15,2013-06-23 07:55:00,
2013-06-23 01:00:00,55.2,48.8,29.83,SSE,158,9.0,12.0,79,0.00,,,0.00,Wunderground v.1.15,2013-06-23 08:00:00,
2013-06-23 01:10:00,54.8,49.1,29.83,SSE,157,6.0,7.0,81,0.00,,,0.00,Wunderground v.1.15,2013-06-23 08:10:00,
2013-06-23 01:20:00,54.9,49.2,29.83,SSW,200,6.0,6.0,81,0.00,,,0.00,Wunderground v.1.15,2013-06-23 08:20:00,
2013-06-23 01:25:00,54.8,49.1,29.83,South,171,5.0,6.0,81,0.00,,,0.00,Wunderground v.1.15,2013-06-23 08:25:00,
2013-06-23 01:30:00,54.7,49.3,29.83,SSW,192,5.0,5.0,82,0.00,,,0.00,Wunderground v.1.15,2013-06-23 08:30:00,
2013-06-23 01:35:00,54.4,49.0,29.83,South,186,5.0,18.0,82,0.00,,,0.00,Wunderground v.1.15,2013-06-23 08:35:00,
2013-06-23 01:40:00,54.3,48.9,29.83,SE,144,6.0,18.0,82,0.00,,,0.00,Wunderground v.1.15,2013-06-23 08:40:00,
2013-06-23 01:45:00,54.5,48.8,29.83,SSE,157,8.0,18.0,81,0.00,,,0.00,Wunderground v.1.15,2013-06-23 08:45:00,
2013-06-23 01:50:00,54.6,49.2,29.83,South,171,8.0,18.0,82,0.00,,,0.00,Wunderground v.1.15,2013-06-23 08:50:00,
2013-06-23 01:55:00,54.6,49.2,29.83,South,170,6.0,18.0,82,0.00,,,0.00,Wunderground v.1.15,2013-06-23 08:55:00,
2013-06-23 02:00:00,54.7,49.3,29.82,SSE,167,7.0,10.0,82,0.00,,,0.00,Wunderground v.1.15,2013-06-23 09:00:00,
2013-06-23 02:10:00,55.0,49.3,29.83,SSE,153,10.0,10.0,81,0.00,,,0.00,Wunderground v.1.15,2013-06-23 09:10:00,
2013-06-23 02:15:00,55.1,49.7,29.83,SSE,166,11.0,11.0,82,0.00,,,0.00,Wunderground v.1.15,2013-06-23 09:15:00,
2013-06-23 02:20:00,55.1,49.7,29.83,SSE,159,10.0,11.0,82,0.00,,,0.00,Wunderground v.1.15,2013-06-23 09:20:00,
2013-06-23 02:25:00,55.0,49.9,29.82,SSE,149,10.0,11.0,83,0.00,,,0.00,Wunderground v.1.15,2013-06-23 09:25:00,
2013-06-23 02:30:00,54.9,49.8,29.82,South,174,9.0,9.0,83,0.00,,,0.00,Wunderground v.1.15,2013-06-23 09:30:00,
2013-06-23 02:35:00,54.8,50.1,29.82,SSE,163,8.0,10.0,84,0.00,,,0.00,Wunderground v.1.15,2013-06-23 09:35:00,
2013-06-23 02:40:00,54.6,49.9,29.83,South,176,8.0,8.0,84,0.00,,,0.00,Wunderground v.1.15,2013-06-23 09:40:00,
2013-06-23 02:45:00,54.5,49.8,29.83,South,177,6.0,12.0,84,0.00,,,0.00,Wunderground v.1.15,2013-06-23 09:45:00,
2013-06-23 02:50:00,54.5,50.1,29.83,South,189,6.0,6.0,85,0.00,,,0.00,Wunderground v.1.15,2013-06-23 09:50:00,
2013-06-23 02:55:00,54.4,50.0,29.82,South,183,6.0,12.0,85,0.00,,,0.00,Wunderground v.1.15,2013-06-23 09:55:00,
2013-06-23 03:00:00,54.1,49.7,29.83,SSW,204,5.0,5.0,85,0.00,,,0.00,Wunderground v.1.15,2013-06-23 10:00:00,
2013-06-23 03:10:00,53.9,49.8,29.82,South,174,5.0,7.0,86,0.00,,,0.00,Wunderground v.1.15,2013-06-23 10:10:00,
2013-06-23 03:15:00,53.8,50.0,29.83,SW,220,5.0,7.0,87,0.00,,,0.00,Wunderground v.1.15,2013-06-23 10:15:00,
2013-06-23 03:20:00,53.9,50.1,29.82,South,176,5.0,6.0,87,0.00,,,0.00,Wunderground v.1.15,2013-06-23 10:20:00,
2013-06-23 03:30:00,53.7,49.9,29.82,South,182,7.0,7.0,87,0.00,,,0.00,Wunderground v.1.15,2013-06-23 10:30:00,
2013-06-23 03:35:00,53.5,49.7,29.82,South,178,7.0,15.0,87,0.00,,,0.00,Wunderground v.1.15,2013-06-23 10:35:00,
2013-06-23 03:40:00,53.3,49.8,29.82,SSW,192,6.0,6.0,88,0.00,,,0.00,Wunderground v.1.15,2013-06-23 10:40:00,
2013-06-23 03:45:00,53.0,49.5,29.82,SSE,163,6.0,9.0,88,0.00,,,0.00,Wunderground v.1.15,2013-06-23 10:45:00,
2013-06-23 03:50:00,52.9,50.0,29.82,South,173,7.0,15.0,90,0.00,,,0.00,Wunderground v.1.15,2013-06-23 10:50:00,
2013-06-23 03:55:00,52.9,50.3,29.82,SSE,166,8.0,15.0,91,0.00,,,0.00,Wunderground v.1.15,2013-06-23 10:55:00,
2013-06-23 04:00:00,52.8,50.5,29.82,SSE,165,8.0,11.0,92,0.00,,,0.00,Wunderground v.1.15,2013-06-23 11:00:00,
2013-06-23 04:05:00,52.8,50.5,29.82,South,173,8.0,11.0,92,0.00,,,0.00,Wunderground v.1.15,2013-06-23 11:05:00,
2013-06-23 04:10:00,52.9,50.9,29.82,South,178,7.0,7.0,93,0.00,,,0.00,Wunderground v.1.15,2013-06-23 11:10:00,
2013-06-23 04:15:00,52.9,50.9,29.82,South,169,7.0,11.0,93,0.00,,,0.00,Wunderground v.1.15,2013-06-23 11:15:00,
2013-06-23 04:20:00,53.0,51.0,29.82,South,171,7.0,8.0,93,0.00,,,0.00,Wunderground v.1.15,2013-06-23 11:20:00,
2013-06-23 04:25:00,53.0,51.0,29.82,SSE,167,8.0,8.0,93,0.00,,,0.00,Wunderground v.1.15,2013-06-23 11:25:00,
2013-06-23 04:30:00,53.0,51.0,29.82,SSE,155,7.0,13.0,93,0.00,,,0.00,Wunderground v.1.15,2013-06-23 11:30:00,
2013-06-23 04:35:00,53.2,51.2,29.82,South,171,9.0,15.0,93,0.00,,,0.00,Wunderground v.1.15,2013-06-23 11:35:00,
2013-06-23 04:40:00,53.3,51.3,29.82,SSE,165,8.0,8.0,93,0.00,,,0.00,Wunderground v.1.15,2013-06-23 11:40:00,
2013-06-23 04:45:00,53.3,51.3,29.82,South,188,7.0,15.0,93,0.00,,,0.00,Wunderground v.1.15,2013-06-23 11:45:00,
2013-06-23 04:50:00,53.3,51.3,29.83,SSE,167,8.0,15.0,93,0.00,,,0.00,Wunderground v.1.15,2013-06-23 11:50:00,
2013-06-23 04:55:00,53.2,51.5,29.83,SSW,197,9.0,15.0,94,0.00,,,0.00,Wunderground v.1.15,2013-06-23 11:55:00,
2013-06-23 05:00:00,53.1,51.4,29.83,SSE,147,10.0,10.0,94,0.00,,,0.00,Wunderground v.1.15,2013-06-23 12:00:00,
2013-06-23 05:05:00,53.1,51.4,29.83,SSW,205,8.0,10.0,94,0.00,,,0.00,Wunderground v.1.15,2013-06-23 12:05:00,
2013-06-23 05:10:00,53.1,51.7,29.83,South,173,7.0,9.0,95,0.00,,,0.00,Wunderground v.1.15,2013-06-23 12:10:00,
2013-06-23 05:15:00,53.0,51.3,29.82,SSE,148,8.0,9.0,94,0.00,,,0.00,Wunderground v.1.15,2013-06-23 12:15:00,
2013-06-23 05:20:00,53.0,51.6,29.83,SW,226,8.0,8.0,95,0.00,,,0.00,Wunderground v.1.15,2013-06-23 12:20:00,
2013-06-23 05:25:00,53.0,51.6,29.83,SSE,153,6.0,8.0,95,0.00,,,0.00,Wunderground v.1.15,2013-06-23 12:25:00,
2013-06-23 05:30:00,52.9,51.5,29.82,SSE,167,7.0,7.0,95,0.00,,,0.00,Wunderground v.1.15,2013-06-23 12:30:00,
2013-06-23 05:35:00,53.1,51.7,29.83,South,173,6.0,18.0,95,0.00,,,0.00,Wunderground v.1.15,2013-06-23 12:35:00,
2013-06-23 05:45:00,53.2,51.8,29.83,South,175,6.0,18.0,95,0.00,,,0.00,Wunderground v.1.15,2013-06-23 12:45:00,
2013-06-23 05:50:00,53.1,51.7,29.83,South,173,5.0,18.0,95,0.00,,,0.00,Wunderground v.1.15,2013-06-23 12:50:00,
2013-06-23 05:55:00,53.1,51.7,29.83,SSW,213,5.0,18.0,95,0.00,,,0.00,Wunderground v.1.15,2013-06-23 12:55:00,
2013-06-23 06:00:00,53.0,51.6,29.83,SSW,203,6.0,6.0,95,0.00,,,0.00,Wunderground v.1.15,2013-06-23 13:00:00,
2013-06-23 06:10:00,53.0,51.6,29.83,South,182,5.0,5.0,95,0.00,,,0.00,Wunderground v.1.15,2013-06-23 13:10:00,
2013-06-23 06:15:00,53.0,51.9,29.83,SSW,198,5.0,5.0,96,0.00,,,0.00,Wunderground v.1.15,2013-06-23 13:15:00,
2013-06-23 06:20:00,52.9,51.8,29.83,SSW,193,5.0,5.0,96,0.00,,,0.00,Wunderground v.1.15,2013-06-23 13:20:00,
2013-06-23 06:25:00,52.8,51.4,29.83,South,169,5.0,5.0,95,0.00,,,0.00,Wunderground v.1.15,2013-06-23 13:25:00,
2013-06-23 06:30:00,52.7,51.6,29.83,WSW,241,5.0,5.0,96,0.00,,,0.00,Wunderground v.1.15,2013-06-23 13:30:00,
2013-06-23 06:35:00,52.6,51.2,29.84,SSW,209,5.0,13.0,95,0.00,,,0.00,Wunderground v.1.15,2013-06-23 13:35:00,
2013-06-23 06:40:00,52.6,51.5,29.84,SW,226,4.0,4.0,96,0.00,,,0.00,Wunderground v.1.15,2013-06-23 13:40:00,
2013-06-23 06:45:00,52.6,51.5,29.84,SSW,205,4.0,5.0,96,0.00,,,0.00,Wunderground v.1.15,2013-06-23 13:45:00,
2013-06-23 06:50:00,52.5,51.4,29.84,SSE,161,5.0,13.0,96,0.00,,,0.00,Wunderground v.1.15,2013-06-23 13:50:00,
2013-06-23 06:55:00,52.5,51.4,29.84,South,181,6.0,13.0,96,0.00,,,0.00,Wunderground v.1.15,2013-06-23 13:55:00,
2013-06-23 07:05:00,52.5,51.4,29.84,SSW,196,5.0,6.0,96,0.00,,,0.00,Wunderground v.1.15,2013-06-23 14:05:00,
2013-06-23 07:10:00,52.5,51.4,29.84,SW,217,4.0,4.0,96,0.00,,,0.00,Wunderground v.1.15,2013-06-23 14:10:00,
2013-06-23 07:15:00,52.6,51.5,29.84,SW,216,4.0,9.0,96,0.00,,,0.00,Wunderground v.1.15,2013-06-23 14:15:00,
2013-06-23 07:20:00,52.7,51.6,29.84,WSW,238,5.0,5.0,96,0.00,,,0.00,Wunderground v.1.15,2013-06-23 14:20:00,
2013-06-23 07:25:00,52.8,51.7,29.84,SSE,150,5.0,8.0,96,0.00,,,0.00,Wunderground v.1.15,2013-06-23 14:25:00,
2013-06-23 07:30:00,52.9,51.5,29.84,SSE,161,6.0,6.0,95,0.00,,,0.00,Wunderground v.1.15,2013-06-23 14:30:00,
2013-06-23 07:35:00,53.3,51.6,29.84,SSE,155,8.0,10.0,94,0.00,,,0.00,Wunderground v.1.15,2013-06-23 14:35:00,
2013-06-23 07:40:00,53.7,51.7,29.83,SSE,150,8.0,12.0,93,0.00,,,0.00,Wunderground v.1.15,2013-06-23 14:40:00,
2013-06-23 07:50:00,53.9,51.6,29.84,South,189,6.0,6.0,92,0.00,,,0.00,Wunderground v.1.15,2013-06-23 14:50:00,
2013-06-23 07:55:00,54.1,51.8,29.83,South,169,5.0,12.0,92,0.00,,,0.00,Wunderground v.1.15,2013-06-23 14:55:00,
2013-06-23 08:00:00,54.2,51.6,29.84,SSW,198,5.0,7.0,91,0.00,,,0.00,Wunderground v.1.15,2013-06-23 15:00:00,
2013-06-23 08:10:00,54.0,51.7,29.84,South,184,7.0,7.0,92,0.00,,,0.00,Wunderground v.1.15,2013-06-23 15:10:00,
2013-06-23 08:15:00,53.8,51.5,29.84,SSW,200,8.0,8.0,92,0.00,,,0.00,Wunderground v.1.15,2013-06-23 15:15:00,
2013-06-23 08:20:00,53.7,51.7,29.84,South,178,7.0,7.0,93,0.00,,,0.00,Wunderground v.1.15,2013-06-23 15:20:00,
2013-06-23 08:30:00,53.7,51.7,29.84,South,178,5.0,7.0,93,0.00,,,0.00,Wunderground v.1.15,2013-06-23 15:30:00,
2013-06-23 08:35:00,53.6,51.6,29.84,SSE,160,6.0,9.0,93,0.00,,,0.00,Wunderground v.1.15,2013-06-23 15:35:00,
2013-06-23 08:40:00,53.8,51.8,29.84,South,177,6.0,6.0,93,0.00,,,0.00,Wunderground v.1.15,2013-06-23 15:40:00,
2013-06-23 08:45:00,54.6,52.6,29.85,SSW,194,5.0,15.0,93,0.00,,,0.00,Wunderground v.1.15,2013-06-23 15:45:00,
2013-06-23 08:50:00,55.4,52.5,29.85,SSW,192,4.0,4.0,90,0.00,,,0.00,Wunderground v.1.15,2013-06-23 15:50:00,
2013-06-23 08:55:00,55.3,52.4,29.84,South,187,5.0,5.0,90,0.00,,,0.00,Wunderground v.1.15,2013-06-23 15:55:00,
2013-06-23 09:00:00,55.4,52.2,29.85,SSE,167,5.0,5.0,89,0.00,,,0.00,Wunderground v.1.15,2013-06-23 16:00:00,
2013-06-23 09:05:00,55.9,52.7,29.85,SSW,194,5.0,7.0,89,0.00,,,0.00,Wunderground v.1.15,2013-06-23 16:05:00,
2013-06-23 09:10:00,57.2,53.4,29.84,SW,234,5.0,5.0,87,0.00,,,0.00,Wunderground v.1.15,2013-06-23 16:10:00,
2013-06-23 09:15:00,57.8,53.0,29.85,SW,234,5.0,5.0,84,0.00,,,0.00,Wunderground v.1.15,2013-06-23 16:15:00,
2013-06-23 09:20:00,57.4,52.6,29.85,SSW,204,4.0,4.0,84,0.00,,,0.00,Wunderground v.1.15,2013-06-23 16:20:00,
2013-06-23 09:25:00,57.2,52.7,29.86,SW,221,4.0,4.0,85,0.00,,,0.00,Wunderground v.1.15,2013-06-23 16:25:00,
2013-06-23 09:30:00,57.6,52.8,29.86,SSW,207,4.0,5.0,84,0.00,,,0.00,Wunderground v.1.15,2013-06-23 16:30:00,
2013-06-23 09:40:00,56.9,52.8,29.86,SW,223,5.0,11.0,86,0.00,,,0.00,Wunderground v.1.15,2013-06-23 16:40:00,
2013-06-23 09:45:00,56.2,52.4,29.86,SW,228,5.0,11.0,87,0.00,,,0.00,Wunderground v.1.15,2013-06-23 16:45:00,
2013-06-23 09:50:00,56.0,52.5,29.86,WSW,238,5.0,11.0,88,0.00,,,0.00,Wunderground v.1.15,2013-06-23 16:50:00,
2013-06-23 09:55:00,55.8,52.6,29.86,SW,219,5.0,11.0,89,0.00,,,0.00,Wunderground v.1.15,2013-06-23 16:55:00,
2013-06-23 10:00:00,55.8,52.9,29.86,WNW,290,4.0,4.0,90,0.00,,,0.00,Wunderground v.1.15,2013-06-23 17:00:00,
2013-06-23 10:10:00,55.5,52.9,29.86,WSW,237,3.0,4.0,91,0.00,,,0.00,Wunderground v.1.15,2013-06-23 17:10:00,
2013-06-23 10:15:00,55.8,52.9,29.86,South,182,4.0,4.0,90,0.00,,,0.00,Wunderground v.1.15,2013-06-23 17:15:00,
2013-06-23 10:20:00,55.7,52.8,29.86,SSW,198,4.0,5.0,90,0.00,,,0.00,Wunderground v.1.15,2013-06-23 17:20:00,
2013-06-23 10:25:00,55.9,53.0,29.87,SE,135,4.0,5.0,90,0.00,,,0.00,Wunderground v.1.15,2013-06-23 17:25:00,
2013-06-23 10:30:00,56.0,52.8,29.86,SSW,209,3.0,3.0,89,0.00,,,0.00,Wunderground v.1.15,2013-06-23 17:30:00,
2013-06-23 10:35:00,56.0,52.8,29.86,WSW,239,2.0,4.0,89,0.00,,,0.00,Wunderground v.1.15,2013-06-23 17:35:00,
2013-06-23 10:40:00,56.0,52.8,29.86,SW,216,3.0,11.0,89,0.00,,,0.00,Wunderground v.1.15,2013-06-23 17:40:00,
2013-06-23 10:45:00,55.9,53.0,29.86,SW,234,3.0,11.0,90,0.00,,,0.00,Wunderground v.1.15,2013-06-23 17:45:00,
2013-06-23 10:50:00,55.8,52.9,29.87,SW,215,2.0,11.0,90,0.00,,,0.00,Wunderground v.1.15,2013-06-23 17:50:00,
2013-06-23 10:55:00,55.8,52.9,29.87,South,175,3.0,11.0,90,0.00,,,0.00,Wunderground v.1.15,2013-06-23 17:55:00,
2013-06-23 11:00:00,55.7,52.8,29.86,ESE,105,4.0,4.0,90,0.00,,,0.00,Wunderground v.1.15,2013-06-23 18:00:00,
2013-06-23 11:05:00,56.1,53.2,29.86,ESE,114,4.0,4.0,90,0.00,,,0.00,Wunderground v.1.15,2013-06-23 18:05:00,
2013-06-23 11:10:00,58.3,54.4,29.86,SSW,192,5.0,6.0,87,0.00,,,0.00,Wunderground v.1.15,2013-06-23 18:10:00,
2013-06-23 11:15:00,61.3,54.7,29.85,South,180,5.0,6.0,79,0.00,,,0.00,Wunderground v.1.15,2013-06-23 18:15:00,
2013-06-23 11:20:00,62.7,54.7,29.86,SSE,167,4.0,5.0,75,0.00,,,0.00,Wunderground v.1.15,2013-06-23 18:20:00,
2013-06-23 11:25:00,64.3,55.1,29.85,SW,220,5.0,5.0,72,0.00,,,0.00,Wunderground v.1.15,2013-06-23 18:25:00,
2013-06-23 11:30:00,64.4,54.8,29.85,WSW,238,4.0,8.0,71,0.00,,,0.00,Wunderground v.1.15,2013-06-23 18:30:00,
2013-06-23 11:35:00,65.0,55.4,29.86,SSW,206,5.0,8.0,71,0.00,,,0.00,Wunderground v.1.15,2013-06-23 18:35:00,
2013-06-23 11:40:00,64.6,54.6,29.86,South,169,5.0,8.0,70,0.00,,,0.00,Wunderground v.1.15,2013-06-23 18:40:00,
2013-06-23 11:45:00,64.2,54.6,29.86,SW,223,4.0,8.0,71,0.00,,,0.00,Wunderground v.1.15,2013-06-23 18:45:00,
2013-06-23 11:50:00,62.9,53.7,29.86,WSW,244,4.0,8.0,72,0.00,,,0.00,Wunderground v.1.15,2013-06-23 18:50:00,
2013-06-23 11:55:00,62.3,54.6,29.86,SW,228,5.0,8.0,76,0.00,,,0.00,Wunderground v.1.15,2013-06-23 18:55:00,
2013-06-23 12:00:00,63.9,54.7,29.86,SSW,210,6.0,6.0,72,0.00,,,0.00,Wunderground v.1.15,2013-06-23 19:00:00,
2013-06-23 12:05:00,63.9,54.3,29.86,SW,234,5.0,9.0,71,0.00,,,0.00,Wunderground v.1.15,2013-06-23 19:05:00,
2013-06-23 12:10:00,63.6,54.4,29.86,WSW,240,5.0,5.0,72,0.00,,,0.00,Wunderground v.1.15,2013-06-23 19:10:00,
2013-06-23 12:15:00,64.2,54.2,29.85,SW,221,5.0,5.0,70,0.00,,,0.00,Wunderground v.1.15,2013-06-23 19:15:00,
2013-06-23 12:25:00,63.9,54.3,29.86,SW,218,5.0,5.0,71,0.00,,,0.00,Wunderground v.1.15,2013-06-23 19:25:00,
2013-06-23 12:30:00,63.5,54.7,29.86,SW,227,5.0,7.0,73,0.00,,,0.00,Wunderground v.1.15,2013-06-23 19:30:00,
2013-06-23 12:35:00,63.6,54.4,29.87,SW,234,4.0,11.0,72,0.00,,,0.00,Wunderground v.1.15,2013-06-23 19:35:00,
2013-06-23 12:40:00,63.5,53.9,29.87,SW,215,4.0,4.0,71,0.00,,,0.00,Wunderground v.1.15,2013-06-23 19:40:00,
2013-06-23 12:45:00,63.0,54.2,29.87,SSW,211,3.0,6.0,73,0.00,,,0.00,Wunderground v.1.15,2013-06-23 19:45:00,
2013-06-23 12:50:00,63.2,54.4,29.87,SSW,197,4.0,4.0,73,0.00,,,0.00,Wunderground v.1.15,2013-06-23 19:50:00,
2013-06-23 12:55:00,63.3,54.5,29.87,SSW,199,4.0,11.0,73,0.00,,,0.00,Wunderground v.1.15,2013-06-23 19:55:00,
2013-06-23 13:00:00,63.5,54.7,29.87,SW,222,3.0,4.0,73,0.00,,,0.00,Wunderground v.1.15,2013-06-23 20:00:00,
2013-06-23 13:10:00,62.6,53.8,29.87,SSW,192,4.0,5.0,73,0.00,,,0.00,Wunderground v.1.15,2013-06-23 20:10:00,
2013-06-23 13:15:00,61.8,53.8,29.86,South,175,4.0,5.0,75,0.00,,,0.00,Wunderground v.1.15,2013-06-23 20:15:00,
2013-06-23 13:20:00,61.1,53.8,29.86,SSE,161,5.0,5.0,77,0.00,,,0.00,Wunderground v.1.15,2013-06-23 20:20:00,
2013-06-23 13:25:00,60.7,53.8,29.86,SSW,209,5.0,5.0,78,0.00,,,0.00,Wunderground v.1.15,2013-06-23 20:25:00,
2013-06-23 13:30:00,61.0,54.1,29.86,South,190,4.0,4.0,78,0.00,,,0.00,Wunderground v.1.15,2013-06-23 20:30:00,
2013-06-23 13:35:00,60.8,54.2,29.86,SSE,161,4.0,7.0,79,0.00,,,0.00,Wunderground v.1.15,2013-06-23 20:35:00,
2013-06-23 13:40:00,60.6,54.0,29.86,South,175,5.0,5.0,79,0.00,,,0.00,Wunderground v.1.15,2013-06-23 20:40:00,
2013-06-23 13:45:00,61.1,54.2,29.85,SE,142,6.0,7.0,78,0.00,,,0.00,Wunderground v.1.15,2013-06-23 20:45:00,
2013-06-23 13:50:00,61.2,54.6,29.85,SSW,202,6.0,8.0,79,0.00,,,0.00,Wunderground v.1.15,2013-06-23 20:50:00,
2013-06-23 13:55:00,62.1,54.8,29.85,SSW,200,6.0,8.0,77,0.00,,,0.00,Wunderground v.1.15,2013-06-23 20:55:00,
2013-06-23 14:00:00,63.6,55.2,29.86,SW,217,6.0,6.0,74,0.00,,,0.00,Wunderground v.1.15,2013-06-23 21:00:00,
2013-06-23 14:10:00,63.5,54.7,29.85,SW,221,5.0,5.0,73,0.00,,,0.00,Wunderground v.1.15,2013-06-23 21:10:00,
2013-06-23 14:15:00,64.2,55.0,29.85,South,175,5.0,5.0,72,0.00,,,0.00,Wunderground v.1.15,2013-06-23 21:15:00,
2013-06-23 14:20:00,64.3,54.7,29.84,SSE,167,5.0,5.0,71,0.00,,,0.00,Wunderground v.1.15,2013-06-23 21:20:00,
2013-06-23 14:25:00,64.6,55.0,29.84,South,180,5.0,5.0,71,0.00,,,0.00,Wunderground v.1.15,2013-06-23 21:25:00,
2013-06-23 14:30:00,64.8,54.8,29.84,SSE,153,6.0,9.0,70,0.00,,,0.00,Wunderground v.1.15,2013-06-23 21:30:00,
2013-06-23 14:35:00,64.5,54.9,29.85,SSW,197,6.0,11.0,71,0.00,,,0.00,Wunderground v.1.15,2013-06-23 21:35:00,
2013-06-23 14:40:00,65.0,55.4,29.85,SSW,200,5.0,11.0,71,0.00,,,0.00,Wunderground v.1.15,2013-06-23 21:40:00,
2013-06-23 14:45:00,65.2,55.6,29.85,SW,218,5.0,11.0,71,0.00,,,0.00,Wunderground v.1.15,2013-06-23 21:45:00,
2013-06-23 14:50:00,65.0,55.4,29.84,SSW,192,6.0,6.0,71,0.00,,,0.00,Wunderground v.1.15,2013-06-23 21:50:00,
2013-06-23 14:55:00,64.9,55.3,29.85,SSW,192,6.0,11.0,71,0.00,,,0.00,Wunderground v.1.15,2013-06-23 21:55:00,
2013-06-23 15:00:00,64.9,55.7,29.85,SSW,197,5.0,5.0,72,0.00,,,0.00,Wunderground v.1.15,2013-06-23 22:00:00,
2013-06-23 15:05:00,65.2,55.6,29.85,SSW,197,5.0,5.0,71,0.00,,,0.00,Wunderground v.1.15,2013-06-23 22:05:00,
2013-06-23 15:10:00,65.6,55.5,29.85,SSW,206,4.0,5.0,70,0.00,,,0.00,Wunderground v.1.15,2013-06-23 22:10:00,
2013-06-23 15:15:00,65.6,55.9,29.85,SSW,209,4.0,5.0,71,0.00,,,0.00,Wunderground v.1.15,2013-06-23 22:15:00,
2013-06-23 15:20:00,65.3,55.7,29.85,WSW,246,3.0,3.0,71,0.00,,,0.00,Wunderground v.1.15,2013-06-23 22:20:00,
2013-06-23 15:25:00,65.2,55.9,29.85,SW,225,4.0,5.0,72,0.00,,,0.00,Wunderground v.1.15,2013-06-23 22:25:00,
2013-06-23 15:35:00,64.6,56.1,29.85,SW,234,3.0,11.0,74,0.00,,,0.00,Wunderground v.1.15,2013-06-23 22:35:00,
2013-06-23 15:40:00,64.2,55.7,29.84,SSW,200,4.0,11.0,74,0.00,,,0.00,Wunderground v.1.15,2013-06-23 22:40:00,
2013-06-23 15:45:00,63.7,55.6,29.84,South,173,4.0,11.0,75,0.00,,,0.00,Wunderground v.1.15,2013-06-23 22:45:00,
2013-06-23 15:50:00,63.2,55.5,29.84,South,191,4.0,4.0,76,0.00,,,0.00,Wunderground v.1.15,2013-06-23 22:50:00,
2013-06-23 15:55:00,63.1,55.4,29.84,SSW,195,4.0,11.0,76,0.00,,,0.00,Wunderground v.1.15,2013-06-23 22:55:00,
2013-06-23 16:00:00,62.8,55.1,29.84,South,175,5.0,6.0,76,0.00,,,0.00,Wunderground v.1.15,2013-06-23 23:00:00,
2013-06-23 16:05:00,62.4,55.1,29.84,SSW,198,7.0,7.0,77,0.00,,,0.00,Wunderground v.1.15,2013-06-23 23:05:00,
2013-06-23 16:10:00,62.3,55.0,29.84,SSE,161,6.0,7.0,77,0.00,,,0.00,Wunderground v.1.15,2013-06-23 23:10:00,
2013-06-23 16:15:00,62.3,55.4,29.84,South,183,5.0,7.0,78,0.00,,,0.00,Wunderground v.1.15,2013-06-23 23:15:00,
2013-06-23 16:20:00,62.5,55.5,29.84,South,181,6.0,7.0,78,0.00,,,0.00,Wunderground v.1.15,2013-06-23 23:20:00,
2013-06-23 16:25:00,63.1,55.8,29.84,South,186,6.0,7.0,77,0.00,,,0.00,Wunderground v.1.15,2013-06-23 23:25:00,
2013-06-23 16:30:00,63.4,55.7,29.84,South,178,6.0,6.0,76,0.00,,,0.00,Wunderground v.1.15,2013-06-23 23:30:00,
2013-06-23 16:35:00,63.3,55.6,29.84,SSE,160,7.0,7.0,76,0.00,,,0.00,Wunderground v.1.15,2013-06-23 23:35:00,
2013-06-23 16:40:00,63.0,55.7,29.84,South,180,7.0,7.0,77,0.00,,,0.00,Wunderground v.1.15,2013-06-23 23:40:00,
2013-06-23 16:45:00,63.0,55.7,29.84,South,181,7.0,11.0,77,0.00,,,0.00,Wunderground v.1.15,2013-06-23 23:45:00,
2013-06-23 16:50:00,62.7,55.7,29.83,SSW,196,7.0,11.0,78,0.00,,,0.00,Wunderground v.1.15,2013-06-23 23:50:00,
2013-06-23 16:55:00,62.9,55.6,29.83,South,176,7.0,11.0,77,0.00,,,0.00,Wunderground v.1.15,2013-06-23 23:55:00,
2013-06-23 17:00:00,62.9,55.9,29.83,South,173,7.0,7.0,78,0.00,,,0.00,Wunderground v.1.15,2013-06-24 00:00:00,
2013-06-23 17:05:00,63.4,56.1,29.83,South,181,7.0,7.0,77,0.00,,,0.00,Wunderground v.1.15,2013-06-24 00:05:00,
2013-06-23 17:10:00,63.4,56.1,29.83,SSW,197,7.0,7.0,77,0.00,,,0.00,Wunderground v.1.15,2013-06-24 00:10:00,
2013-06-23 17:15:00,63.1,56.1,29.83,South,187,6.0,7.0,78,0.00,,,0.00,Wunderground v.1.15,2013-06-24 00:15:00,
2013-06-23 17:20:00,62.8,56.2,29.84,SSE,159,7.0,7.0,79,0.00,,,0.00,Wunderground v.1.15,2013-06-24 00:20:00,
2013-06-23 17:25:00,62.8,56.2,29.83,South,175,7.0,7.0,79,0.00,,,0.00,Wunderground v.1.15,2013-06-24 00:25:00,
2013-06-23 17:30:00,62.7,56.1,29.83,South,179,6.0,7.0,79,0.00,,,0.00,Wunderground v.1.15,2013-06-24 00:30:00,
2013-06-23 17:35:00,62.8,56.5,29.84,South,182,5.0,14.0,80,0.00,,,0.00,Wunderground v.1.15,2013-06-24 00:35:00,
2013-06-23 17:45:00,62.4,56.5,29.84,South,182,5.0,14.0,81,0.00,,,0.00,Wunderground v.1.15,2013-06-24 00:45:00,
2013-06-23 17:50:00,62.5,56.6,29.84,SW,229,4.0,4.0,81,0.00,,,0.00,Wunderground v.1.15,2013-06-24 00:50:00,
2013-06-23 17:55:00,62.9,56.6,29.84,SW,219,3.0,14.0,80,0.00,,,0.00,Wunderground v.1.15,2013-06-24 00:55:00,
2013-06-23 18:00:00,63.3,57.0,29.83,WSW,241,4.0,4.0,80,0.00,,,0.00,Wunderground v.1.15,2013-06-24 01:00:00,
2013-06-23 18:05:00,63.1,56.8,29.83,SW,229,4.0,7.0,80,0.00,,,0.00,Wunderground v.1.15,2013-06-24 01:05:00,
2013-06-23 18:10:00,63.0,56.7,29.83,SW,236,5.0,6.0,80,0.00,,,0.00,Wunderground v.1.15,2013-06-24 01:10:00,
2013-06-23 18:15:00,62.9,57.0,29.83,WSW,244,5.0,6.0,81,0.00,,,0.00,Wunderground v.1.15,2013-06-24 01:15:00,
2013-06-23 18:20:00,62.7,56.8,29.83,SW,233,5.0,5.0,81,0.00,,,0.00,Wunderground v.1.15,2013-06-24 01:20:00,
2013-06-23 18:25:00,62.6,56.7,29.83,WSW,242,5.0,5.0,81,0.00,,,0.00,Wunderground v.1.15,2013-06-24 01:25:00,
2013-06-23 18:30:00,62.6,57.0,29.83,SW,234,4.0,4.0,82,0.00,,,0.00,Wunderground v.1.15,2013-06-24 01:30:00,
2013-06-23 18:35:00,62.4,56.8,29.83,West,261,3.0,8.0,82,0.00,,,0.00,Wunderground v.1.15,2013-06-24 01:35:00,
2013-06-23 18:40:00,62.2,57.0,29.83,SW,231,3.0,8.0,83,0.00,,,0.00,Wunderground v.1.15,2013-06-24 01:40:00,
2013-06-23 18:45:00,62.0,56.8,29.83,WSW,244,4.0,8.0,83,0.00,,,0.00,Wunderground v.1.15,2013-06-24 01:45:00,
2013-06-23 18:50:00,61.6,56.7,29.83,SW,229,5.0,5.0,84,0.00,,,0.00,Wunderground v.1.15,2013-06-24 01:50:00,
2013-06-23 18:55:00,61.4,56.8,29.83,SW,226,5.0,8.0,85,0.00,,,0.00,Wunderground v.1.15,2013-06-24 01:55:00,
2013-06-23 19:00:00,61.4,56.8,29.83,SSW,205,4.0,6.0,85,0.00,,,0.00,Wunderground v.1.15,2013-06-24 02:00:00,
2013-06-23 19:05:00,61.4,56.8,29.83,SSW,200,5.0,6.0,85,0.00,,,0.00,Wunderground v.1.15,2013-06-24 02:05:00,
2013-06-23 19:10:00,61.4,56.8,29.83,SSW,200,5.0,5.0,85,0.00,,,0.00,Wunderground v.1.15,2013-06-24 02:10:00,
2013-06-23 19:15:00,61.3,56.8,29.83,SSW,205,4.0,5.0,85,0.00,,,0.00,Wunderground v.1.15,2013-06-24 02:15:00,
2013-06-23 19:20:00,61.1,56.6,29.83,SSW,205,4.0,4.0,85,0.00,,,0.00,Wunderground v.1.15,2013-06-24 02:20:00,
2013-06-23 19:25:00,61.1,56.9,29.83,SW,218,4.0,4.0,86,0.00,,,0.00,Wunderground v.1.15,2013-06-24 02:25:00,
2013-06-23 19:30:00,61.0,56.8,29.83,SSW,211,4.0,4.0,86,0.00,,,0.00,Wunderground v.1.15,2013-06-24 02:30:00,
2013-06-23 19:35:00,60.9,56.7,29.83,South,184,4.0,8.0,86,0.00,,,0.00,Wunderground v.1.15,2013-06-24 02:35:00,
2013-06-23 19:40:00,60.7,56.5,29.83,South,180,5.0,5.0,86,0.00,,,0.00,Wunderground v.1.15,2013-06-24 02:40:00,
2013-06-23 19:45:00,60.6,56.7,29.83,SSW,202,4.0,6.0,87,0.00,,,0.00,Wunderground v.1.15,2013-06-24 02:45:00,
2013-06-23 19:50:00,60.4,56.5,29.83,SSW,196,5.0,8.0,87,0.00,,,0.00,Wunderground v.1.15,2013-06-24 02:50:00,
2013-06-23 20:00:00,60.1,56.5,29.83,SSW,200,6.0,6.0,88,0.00,,,0.00,Wunderground v.1.15,2013-06-24 03:00:00,
2013-06-23 20:05:00,59.9,56.6,29.83,South,175,5.0,6.0,89,0.00,,,0.00,Wunderground v.1.15,2013-06-24 03:05:00,
2013-06-23 20:10:00,59.8,56.6,29.83,South,178,4.0,6.0,89,0.00,,,0.00,Wunderground v.1.15,2013-06-24 03:10:00,
2013-06-23 20:15:00,59.6,56.7,29.83,South,179,5.0,6.0,90,0.00,,,0.00,Wunderground v.1.15,2013-06-24 03:15:00,
2013-06-23 20:20:00,59.5,56.6,29.83,South,178,6.0,6.0,90,0.00,,,0.00,Wunderground v.1.15,2013-06-24 03:20:00,
2013-06-23 20:30:00,59.2,56.6,29.83,South,179,4.0,7.0,91,0.00,,,0.00,Wunderground v.1.15,2013-06-24 03:30:00,
2013-06-23 20:35:00,59.2,56.6,29.83,South,183,4.0,10.0,91,0.00,,,0.00,Wunderground v.1.15,2013-06-24 03:35:00,
2013-06-23 20:40:00,59.1,56.5,29.82,South,184,4.0,10.0,91,0.00,,,0.00,Wunderground v.1.15,2013-06-24 03:40:00,
2013-06-23 20:45:00,59.1,56.8,29.82,South,178,5.0,10.0,92,0.00,,,0.00,Wunderground v.1.15,2013-06-24 03:45:00,
2013-06-23 20:50:00,59.0,56.7,29.82,SW,219,5.0,10.0,92,0.00,,,0.00,Wunderground v.1.15,2013-06-24 03:50:00,
2013-06-23 20:55:00,58.9,56.6,29.82,SSW,198,5.0,10.0,92,0.00,,,0.00,Wunderground v.1.15,2013-06-24 03:55:00,
2013-06-23 21:00:00,58.8,56.5,29.82,South,191,5.0,6.0,92,0.00,,,0.00,Wunderground v.1.15,2013-06-24 04:00:00,
2013-06-23 21:05:00,58.7,56.7,29.82,SSW,213,5.0,6.0,93,0.00,,,0.00,Wunderground v.1.15,2013-06-24 04:05:00,
2013-06-23 21:10:00,58.6,56.6,29.82,SW,220,5.0,5.0,93,0.00,,,0.00,Wunderground v.1.15,2013-06-24 04:10:00,
2013-06-23 21:15:00,58.5,56.5,29.82,South,181,5.0,5.0,93,0.00,,,0.00,Wunderground v.1.15,2013-06-24 04:15:00,
2013-06-23 21:20:00,58.5,56.5,29.82,SSW,209,5.0,5.0,93,0.00,,,0.00,Wunderground v.1.15,2013-06-24 04:20:00,
2013-06-23 21:25:00,58.5,56.8,29.82,SSW,202,5.0,5.0,94,0.00,,,0.00,Wunderground v.1.15,2013-06-24 04:25:00,
2013-06-23 21:30:00,58.4,56.7,29.82,SSW,200,5.0,5.0,94,0.00,,,0.00,Wunderground v.1.15,2013-06-24 04:30:00,
2013-06-23 21:35:00,58.4,56.7,29.83,South,175,5.0,9.0,94,0.00,,,0.00,Wunderground v.1.15,2013-06-24 04:35:00,
2013-06-23 21:40:00,58.4,56.7,29.83,SSW,196,5.0,9.0,94,0.00,,,0.00,Wunderground v.1.15,2013-06-24 04:40:00,
2013-06-23 21:45:00,58.4,56.7,29.83,South,186,5.0,9.0,94,0.00,,,0.00,Wunderground v.1.15,2013-06-24 04:45:00,
2013-06-23 21:50:00,58.4,56.7,29.83,SSW,192,4.0,9.0,94,0.00,,,0.00,Wunderground v.1.15,2013-06-24 04:50:00,
2013-06-23 21:55:00,58.4,56.7,29.83,SSW,192,4.0,9.0,94,0.00,,,0.00,Wunderground v.1.15,2013-06-24 04:55:00,
2013-06-23 22:00:00,58.3,56.6,29.83,South,189,5.0,5.0,94,0.00,,,0.00,Wunderground v.1.15,2013-06-24 05:00:00,
2013-06-23 22:10:00,58.3,56.6,29.83,SSW,208,4.0,4.0,94,0.00,,,0.00,Wunderground v.1.15,2013-06-24 05:10:00,
2013-06-23 22:15:00,58.3,56.6,29.83,SSW,198,4.0,4.0,94,0.00,,,0.00,Wunderground v.1.15,2013-06-24 05:15:00,
2013-06-23 22:20:00,58.2,56.5,29.83,SSE,162,4.0,4.0,94,0.00,,,0.00,Wunderground v.1.15,2013-06-24 05:20:00,
2013-06-23 22:25:00,58.2,56.5,29.83,South,178,4.0,5.0,94,0.00,,,0.00,Wunderground v.1.15,2013-06-24 05:25:00,
2013-06-23 22:30:00,58.2,56.5,29.83,SSW,196,4.0,4.0,94,0.00,,,0.00,Wunderground v.1.15,2013-06-24 05:30:00,
2013-06-23 22:35:00,58.2,56.8,29.83,South,178,5.0,5.0,95,0.00,,,0.00,Wunderground v.1.15,2013-06-24 05:35:00,
2013-06-23 22:40:00,58.2,56.8,29.83,SSW,194,5.0,10.0,95,0.00,,,0.00,Wunderground v.1.15,2013-06-24 05:40:00,
2013-06-23 22:45:00,58.2,56.8,29.83,SSW,198,4.0,10.0,95,0.00,,,0.00,Wunderground v.1.15,2013-06-24 05:45:00,
2013-06-23 22:50:00,58.1,56.7,29.83,SSW,194,5.0,10.0,95,0.00,,,0.00,Wunderground v.1.15,2013-06-24 05:50:00,
2013-06-23 22:55:00,58.1,56.4,29.83,South,169,5.0,10.0,94,0.00,,,0.00,Wunderground v.1.15,2013-06-24 05:55:00,
2013-06-23 23:00:00,58.1,56.4,29.83,South,188,5.0,5.0,94,0.00,,,0.00,Wunderground v.1.15,2013-06-24 06:00:00,
2013-06-23 23:05:00,58.0,56.6,29.83,South,178,5.0,5.0,95,0.00,,,0.00,Wunderground v.1.15,2013-06-24 06:05:00,
2013-06-23 23:10:00,57.9,56.5,29.83,South,188,5.0,5.0,95,0.00,,,0.00,Wunderground v.1.15,2013-06-24 06:10:00,
2013-06-23 23:15:00,57.9,56.5,29.82,South,184,5.0,5.0,95,0.00,,,0.00,Wunderground v.1.15,2013-06-24 06:15:00,
2013-06-23 23:20:00,57.8,56.4,29.82,SSW,198,5.0,7.0,95,0.00,,,0.00,Wunderground v.1.15,2013-06-24 06:20:00,
2013-06-23 23:25:00,57.7,56.3,29.82,South,169,5.0,7.0,95,0.00,,,0.00,Wunderground v.1.15,2013-06-24 06:25:00,
2013-06-23 23:30:00,57.6,56.2,29.82,SSW,194,5.0,7.0,95,0.00,,,0.00,Wunderground v.1.15,2013-06-24 06:30:00,
2013-06-23 23:35:00,57.6,56.2,29.82,South,180,5.0,10.0,95,0.00,,,0.00,Wunderground v.1.15,2013-06-24 06:35:00,
2013-06-23 23:40:00,57.6,56.2,29.82,South,187,4.0,4.0,95,0.00,,,0.00,Wunderground v.1.15,2013-06-24 06:40:00,
2013-06-23 23:45:00,57.5,56.1,29.82,SSW,196,4.0,10.0,95,0.00,,,0.00,Wunderground v.1.15,2013-06-24 06:45:00,
2013-06-23 23:50:00,57.6,56.5,29.82,South,190,4.0,10.0,96,0.00,,,0.00,Wunderground v.1.15,2013-06-24 06:50:00,
2013-06-23 23:55:00,57.6,56.5,29.82,South,189,4.0,10.0,96,0.00,,,0.00,Wunderground v.1.15,2013-06-24 06:55:00,